Theta_e
327 322 318 317 303 299 296 300 303 307 308 311 315 315 317 319 317 308 331 336 338 337 340 341 344 346 348 347 347 348 347 347 347 345 342 342 341 340 339 338 339 336 335 336 335 335 334 333 332
324 324 317 310 298 292 294 302 302 310 314 316 317 316 317 317 326 327 327 337 338 337 338 341 342 345 347 347 347 347 347 347 346 344 342 340 339 339 339 337 337 336 335 335 335 334 334 332 330
321 323 308 304 298 293 294 300 304 310 315 314 314 321 320 320 326 328 332 336 338 335 336 342 343 345 347 348 348 348 347 347 346 344 342 340 339 339 338 336 336 335 334 337 333 334 334 333 332
314 310 308 300 297 300 300 303 308 310 313 315 316 315 322 329 329 332 332 337 335 333 336 341 345 347 347 347 348 347 347 346 346 341 341 340 337 337 337 336 336 334 334 333 334 333 331 330 329
313 306 299 295 297 301 303 309 310 308 312 313 314 315 319 329 334 335 330 336 333 334 340 342 343 345 346 347 347 346 345 345 345 344 342 340 338 337 336 335 334 333 333 332 331 330 329 328 327
305 304 295 293 297 303 302 308 308 307 309 313 315 318 320 331 331 332 330 332 334 336 340 342 337 340 343 344 344 344 344 344 343 343 342 341 340 338 336 334 333 332 331 330 329 328 327 327 326
303 301 296 295 298 301 303 309 307 306 307 315 317 316 320 326 330 331 329 330 335 337 339 339 339 337 336 338 340 341 341 341 341 341 340 341 339 337 336 335 332 331 330 328 327 326 326 325 325
307 303 298 298 298 299 305 306 309 308 307 318 323 315 316 325 330 329 329 331 333 334 337 337 336 337 336 336 332 334 336 337 338 336 334 332 333 333 333 331 333 331 330 328 326 325 324 324 325
310 298 295 298 299 302 308 306 307 312 309 315 324 321 325 330 330 326 325 328 330 331 333 334 335 335 334 333 329 328 330 331 332 330 327 325 326 326 326 326 331 334 331 329 326 325 326 327 326
304 297 299 304 304 303 305 306 307 306 306 312 321 325 328 329 326 324 325 322 326 327 329 331 333 332 331 334 328 328 330 329 328 327 325 325 324 324 325 322 327 330 329 330 328 329 329 325 321
304 300 304 306 308 309 307 306 308 305 302 308 317 322 324 324 324 323 324 323 324 327 329 330 331 331 330 329 328 326 326 325 325 323 323 323 323 322 321 321 323 322 321 320 324 323 323 322 321
296 305 308 308 310 308 305 308 306 304 305 315 319 325 324 323 324 324 324 322 322 326 328 329 331 330 330 328 328 327 326 324 323 323 323 321 320 320 320 319 319 319 320 318 318 319 321 321 321
293 297 303 308 308 307 308 306 305 305 308 314 325 325 322 323 323 324 325 323 322 322 328 328 329 330 329 329 329 329 327 327 327 324 324 323 320 320 320 319 320 319 320 319 318 319 319 319 320
296 296 300 302 302 305 304 305 305 305 307 312 324 323 322 323 323 322 324 322 323 324 327 329 329 330 329 330 330 330 331 330 329 327 325 323 321 320 320 319 319 319 319 319 318 318 319 319 320
294 292 296 298 301 303 306 301 301 307 308 306 314 321 322 322 324 324 326 324 322 324 328 328 329 329 328 330 331 332 332 331 328 327 324 323 323 321 320 319 318 319 319 319 318 319 320 319 321
288 289 286 295 300 302 304 295 303 307 306 306 305 309 321 322 324 326 327 327 326 322 326 328 329 328 328 329 331 332 333 332 331 329 325 324 324 322 320 319 318 319 319 318 318 318 318 318 319
282 279 282 286 295 295 301 295 304 308 305 306 307 304 308 319 324 326 327 327 328 324 323 327 327 327 327 328 330 332 333 332 332 329 325 325 325 323 321 320 320 321 320 319 319 318 318 318 320
275 277 280 280 287 290 289 291 301 305 304 302 302 305 304 308 319 325 327 329 329 324 322 327 328 328 328 328 328 328 331 331 329 329 325 326 326 325 323 322 322 323 322 321 321 319 320 322 323
279 277 277 281 285 285 286 287 291 294 294 294 298 302 304 309 313 323 327 328 329 325 322 324 325 327 327 327 326 326 326 328 327 328 327 326 327 326 324 323 323 323 323 325 325 324 324 323 325
279 277 276 281 286 283 282 282 286 290 293 293 293 295 298 302 308 314 325 326 327 327 324 324 325 325 326 326 327 327 326 327 327 325 327 327 326 326 326 324 323 323 323 325 326 326 325 325 325
278 277 278 279 283 282 280 279 283 288 292 293 295 296 298 299 302 304 314 324 327 327 325 323 326 326 326 326 327 327 327 327 325 324 325 327 327 327 326 326 326 325 327 326 326 326 324 320 323
276 282 281 280 278 273 280 270 279 284 285 288 292 294 295 300 303 305 308 317 324 326 327 327 325 326 326 326 325 324 323 322 325 326 325 326 328 329 329 327 327 327 327 325 326 326 326 324 322
278 283 281 280 277 276 277 271 275 283 283 286 288 292 295 298 301 305 307 314 321 325 327 327 325 326 326 325 325 324 323 324 325 324 324 326 328 330 329 327 326 326 326 327 327 326 325 325 323
284 281 280 279 276 265 274 276 272 278 283 285 289 292 295 297 298 302 305 310 318 321 323 324 325 324 326 325 325 324 324 324 324 325 324 326 327 327 327 328 327 327 326 325 326 325 325 324 324
282 277 266 262 260 264 275 273 276 282 285 287 287 290 295 297 300 301 302 304 308 319 320 323 324 323 325 324 324 324 325 325 326 325 325 325 320 318 319 319 317 316 318 319 319 319 319 320 318
277 275 268 261 266 269 276 271 276 284 286 289 292 292 293 294 296 298 300 302 308 310 314 323 324 324 324 324 324 325 326 327 328 326 327 323 316 313 313 313 312 313 315 314 315 313 312 312 309
276 268 278 268 272 267 271 274 280 284 284 286 289 290 291 293 294 295 297 300 302 304 305 310 321 323 324 324 324 325 326 325 319 317 317 314 312 310 309 308 306 306 306 305 305 306 305 305 303
280 281 272 273 262 259 270 271 272 278 281 283 284 286 288 291 293 294 295 297 300 301 301 304 310 317 320 319 320 317 314 312 311 311 309 308 307 306 305 304 304 303 304 304 303 302 302 300 300
275 272 272 272 274 268 267 269 278 279 280 281 283 285 287 288 291 293 294 294 296 298 298 300 305 310 312 315 311 308 306 306 307 305 305 304 304 303 301 300 299 298 298 298 297 297 297 295 294
278 275 274 265 266 271 270 269 282 283 284 281 282 284 286 288 291 292 293 293 294 295 295 296 299 301 306 310 309 307 305 304 302 301 300 300 298 298 297 297 296 295 295 295 294 293 293 291 290
Wind_Speed
12 13 2 4 4 4 5 8 4 4 4 0 3 7 8 2 2 3 3 13 18 15 12 12 15 16 16 15 14 13 13 17 18 17 15 15 14 15 15 14 12 13 12 14 14 14 13 12 11
6 7 4 2 4 1 7 10 6 5 3 5 6 7 3 2 3 6 7 17 19 15 11 10 14 15 15 15 15 13 15 18 18 17 16 15 14 15 15 14 13 12 12 13 13 13 12 12 11
10 5 3 3 4 6 5 6 8 3 6 3 3 6 4 5 3 6 11 18 17 14 10 9 12 15 15 14 13 14 15 16 18 17 16 15 15 15 14 13 13 11 12 12 11 11 11 10 9
4 5 4 2 8 11 10 7 4 4 2 4 5 6 4 3 11 7 16 18 16 14 11 11 13 14 14 13 13 14 15 16 16 15 15 15 15 15 13 12 11 11 11 11 11 10 10 9 8
4 2 2 2 11 8 7 8 5 3 5 4 3 6 4 2 8 12 15 17 16 12 12 11 12 12 13 14 13 15 15 16 16 15 13 14 15 14 14 12 11 10 10 9 9 9 8 8 7
4 2 1 4 10 12 7 8 4 3 2 4 6 7 5 7 10 8 10 15 15 14 13 11 11 11 12 12 13 12 13 13 14 13 13 13 15 15 14 12 11 9 9 8 8 7 6 6 4
5 3 5 5 11 12 7 8 7 4 4 4 9 6 3 4 8 8 9 12 14 15 12 9 8 9 11 11 11 11 10 9 14 12 11 12 13 13 11 12 11 9 8 7 6 5 4 2 0
4 4 4 5 9 14 6 4 6 6 3 3 2 8 6 7 10 8 8 14 13 12 13 10 8 7 6 6 9 9 9 9 9 10 10 9 11 11 11 10 11 9 7 6 4 3 2 2 3
2 2 6 8 7 14 12 6 2 6 4 5 4 2 5 16 10 7 7 10 11 11 13 11 10 7 6 6 6 8 8 7 8 8 9 8 4 6 8 7 8 9 6 5 4 4 4 5 6
6 6 9 7 9 11 9 5 6 3 4 4 5 7 9 14 8 11 14 14 13 13 12 12 11 10 8 7 6 5 6 5 5 5 6 4 5 5 5 6 9 9 7 5 6 6 6 5 3
6 13 7 9 13 18 15 5 4 5 3 6 9 14 10 8 8 8 10 11 13 14 11 13 13 11 10 8 6 3 3 3 4 6 6 5 3 4 4 3 3 3 6 3 4 4 3 4 4
8 7 13 14 10 7 5 5 4 2 6 4 12 18 13 14 14 12 11 12 12 16 14 13 14 13 11 7 7 7 5 4 4 5 7 4 2 3 4 4 5 4 3 4 4 3 5 6 5
6 11 13 10 9 10 8 10 6 6 8 2 15 15 13 13 10 7 6 9 9 13 15 14 13 12 11 12 9 7 7 7 7 6 7 5 4 5 4 4 4 4 4 4 4 4 4 4 5
14 14 9 8 9 6 8 9 4 4 4 7 15 14 15 15 14 7 9 8 15 13 16 15 13 11 10 11 11 8 6 5 5 7 8 7 5 5 5 4 4 4 4 4 4 4 4 4 4
13 10 8 6 4 5 5 10 11 10 8 5 9 12 13 15 14 18 15 11 8 11 15 15 14 11 9 11 11 8 7 7 6 6 8 7 6 6 6 4 4 4 4 5 2 3 2 3 4
6 5 3 4 4 6 3 13 4 9 8 11 7 9 15 17 21 16 15 12 9 9 15 15 13 11 9 8 9 8 8 7 7 6 7 8 7 7 6 5 5 5 4 4 3 3 3 3 4
5 5 6 8 7 10 14 5 10 12 9 15 15 9 10 14 16 17 17 17 14 12 14 16 16 16 12 9 7 9 10 9 7 6 7 10 10 8 6 5 5 6 4 4 4 4 4 3 4
3 4 6 6 9 14 17 17 10 11 6 6 8 9 9 10 17 19 20 18 17 11 13 17 14 16 14 9 7 5 5 6 5 7 8 11 9 10 7 5 5 5 3 4 3 5 4 4 4
8 5 6 8 11 11 5 7 7 9 11 7 8 8 9 7 10 15 19 19 17 11 14 17 17 16 13 11 11 10 10 8 4 7 12 11 9 8 7 5 5 5 5 6 6 4 5 3 3
10 10 7 9 7 8 9 15 9 9 10 10 9 11 12 10 6 6 16 17 17 20 17 16 18 17 13 10 9 9 10 9 5 3 8 10 10 10 9 7 6 6 4 6 6 5 3 3 4
8 9 14 14 16 5 8 9 6 7 7 8 13 10 11 11 10 2 6 16 19 18 17 18 18 18 16 14 10 8 8 8 7 5 6 7 11 10 10 9 8 7 6 6 6 5 6 4 3
9 8 12 14 13 6 8 9 3 2 7 8 12 16 13 15 13 10 7 9 14 18 19 19 19 19 17 17 13 15 11 12 11 10 4 5 9 11 11 10 9 8 6 5 6 4 5 5 6
7 11 12 12 11 11 7 4 8 8 8 13 17 14 17 15 15 17 9 6 9 11 14 15 18 18 19 18 16 14 13 12 7 6 8 9 8 10 10 8 7 6 4 6 6 5 5 3 2
11 8 14 10 3 2 7 7 5 4 7 6 7 6 9 14 15 11 14 6 6 7 5 7 11 16 18 18 17 18 18 13 10 8 8 7 5 4 6 6 5 4 3 3 3 4 5 4 4
5 6 5 8 5 6 5 8 10 20 18 15 15 9 12 14 14 14 10 8 6 8 7 8 12 13 16 18 17 16 16 15 13 12 8 8 5 3 5 7 7 5 5 4 5 6 4 4 3
8 5 3 5 7 10 8 6 8 10 16 5 7 6 9 10 9 10 10 10 9 8 10 16 13 14 14 15 16 13 14 10 10 8 7 6 6 6 7 8 8 6 6 7 5 5 3 6 6
6 2 5 3 8 3 6 9 10 11 8 9 9 10 8 7 7 8 7 8 10 10 10 13 8 14 16 16 13 13 11 9 7 8 8 7 9 8 9 7 9 8 8 8 7 6 4 2 8
6 4 5 1 2 5 6 6 8 11 11 12 15 14 11 8 7 8 7 7 6 7 7 9 12 6 10 11 6 6 7 6 7 9 10 11 10 10 9 10 9 7 6 6 6 9 5 6 5
7 4 4 2 5 7 7 6 8 9 3 9 10 13 14 11 8 7 7 7 6 5 7 8 9 8 4 12 14 12 8 9 8 10 10 12 11 11 10 10 8 5 9 6 6 8 7 6 5
14 13 8 3 8 6 8 17 20 18 10 7 12 15 10 11 7 7 7 6 6 5 5 6 7 9 6 5 8 12 21 16 12 9 10 8 11 9 11 9 9 12 4 5 4 8 7 5 5
Wind_Direction
318 310 273 27 53 72 259 263 266 13 53 90 77 87 121 71 46 181 190 122 131 141 148 152 154 156 150 145 144 145 148 157 133 126 122 120 120 119 116 108 106 101 102 104 101 95 89 84 79
309 310 27 66 101 68 268 243 255 112 151 78 53 100 66 90 103 133 106 139 134 139 144 154 153 158 153 150 150 149 141 141 134 129 125 122 122 123 120 115 110 105 102 107 105 93 90 83 76
292 180 68 145 182 210 241 253 201 135 119 112 88 55 101 133 106 144 125 136 130 135 143 150 154 159 153 152 153 158 151 144 134 133 131 127 127 124 122 119 112 108 102 95 102 100 92 84 74
317 5 346 149 251 257 232 283 143 110 57 72 107 69 37 266 152 160 133 134 131 141 137 143 150 154 152 149 150 147 147 144 135 139 138 134 130 131 128 124 120 111 104 99 94 92 87 79 70
13 65 269 259 262 265 245 240 120 94 173 184 120 164 98 77 130 138 134 137 138 134 135 142 148 153 152 150 153 148 147 143 137 140 139 141 136 135 133 128 115 110 113 107 100 92 84 75 64
352 97 311 251 265 265 276 220 121 89 242 234 103 115 176 139 130 150 136 141 130 135 140 143 146 150 150 152 144 149 148 143 132 138 139 144 146 141 136 131 129 127 123 117 110 101 90 81 66
161 98 236 270 275 296 276 216 137 161 290 241 158 103 149 153 162 153 137 127 134 137 137 133 141 145 139 142 142 141 140 138 141 142 132 134 140 137 133 134 134 138 135 129 122 116 108 103 63
168 137 236 238 269 280 279 286 153 123 247 291 60 152 178 196 164 146 130 126 135 140 141 140 137 138 135 145 136 136 138 140 137 140 138 134 136 139 137 148 143 149 150 145 141 146 172 224 258
291 177 226 230 235 260 290 271 279 147 121 44 30 77 185 144 137 137 134 133 142 148 149 147 149 149 144 142 146 135 137 141 145 144 147 143 148 155 157 147 153 152 159 169 187 208 232 257 283
180 186 216 217 243 264 274 265 203 139 194 108 66 59 116 142 143 163 168 153 161 157 157 154 157 161 157 160 143 146 148 148 147 148 161 163 167 168 162 166 164 163 172 203 217 232 247 272 273
219 232 229 240 237 262 275 305 293 165 203 192 184 165 155 159 169 177 178 174 164 160 161 164 163 168 168 154 153 151 151 154 158 162 177 194 170 168 152 151 165 175 198 219 240 254 255 261 253
268 237 227 255 261 279 292 311 274 200 228 141 172 168 153 169 187 187 187 177 161 160 166 170 163 166 177 153 162 163 163 173 174 181 186 197 155 163 157 171 188 193 203 218 229 223 239 241 244
284 281 274 266 266 269 282 262 242 264 272 56 131 153 166 172 192 200 211 182 171 163 170 169 170 167 173 162 167 168 179 179 178 177 188 179 166 182 174 192 196 198 200 199 213 215 232 238 247
313 305 298 302 307 297 291 270 198 272 294 138 151 170 170 180 188 192 223 204 183 168 171 170 171 177 167 167 165 166 172 180 182 182 182 183 179 177 186 199 197 198 198 207 206 212 233 243 239
301 303 314 286 291 275 7 271 239 237 271 247 195 177 178 188 180 204 208 212 186 178 168 175 173 161 157 171 165 165 170 180 196 181 182 177 181 185 188 193 199 202 205 210 223 257 246 278 282
310 304 331 335 270 246 200 245 285 236 244 268 225 218 187 186 196 195 200 205 195 184 179 179 182 163 160 167 166 170 180 185 204 180 183 184 181 185 192 188 200 207 201 193 186 209 272 265 265
310 265 278 296 261 265 232 244 221 253 251 244 253 220 227 200 199 193 191 191 201 194 174 183 185 180 166 170 168 171 185 194 201 182 181 188 190 189 183 189 202 196 190 188 191 207 190 225 251
289 332 316 321 313 338 280 268 258 268 258 257 284 273 230 217 202 195 192 190 197 194 177 178 181 185 176 171 181 176 195 190 193 186 183 190 194 194 186 195 200 194 189 197 195 202 209 206 224
289 265 281 285 289 305 299 337 326 330 327 349 326 310 321 279 214 198 190 189 192 184 180 176 174 182 179 188 195 200 213 207 211 195 188 188 188 188 186 193 192 194 195 200 202 203 217 248 233
325 308 296 275 272 326 295 296 277 285 290 283 284 293 294 299 324 267 189 187 193 193 182 178 182 174 181 182 190 207 209 216 213 211 193 189 181 190 191 186 193 202 206 211 211 211 220 227 183
325 349 345 328 320 241 265 270 235 254 257 279 283 246 261 271 281 247 263 200 193 195 183 180 182 182 184 182 180 196 201 218 221 216 199 188 187 184 187 193 196 199 199 209 207 201 200 224 216
320 357 348 333 346 297 32 289 281 252 298 280 274 284 262 258 251 264 203 228 212 198 193 183 177 179 182 182 183 192 198 205 212 214 183 185 187 189 188 189 198 203 191 195 218 212 214 190 219
273 334 321 300 296 318 328 282 266 236 248 249 253 252 264 255 238 253 230 227 212 212 210 195 176 174 177 181 184 187 205 215 201 193 189 192 191 186 188 177 172 180 192 209 204 199 206 212 191
277 320 302 279 230 312 250 248 279 227 230 278 283 302 281 253 246 234 264 169 251 233 248 209 183 176 178 180 184 191 199 207 207 206 191 189 178 149 154 161 158 158 176 196 208 210 213 216 228
36 358 326 351 1 232 5 324 257 290 295 300 293 304 16 15 22 26 21 38 355 202 224 217 189 182 181 183 185 192 196 206 207 202 193 166 144 131 138 131 123 117 116 93 94 95 75 75 71
307 181 217 277 306 306 298 258 263 302 295 348 42 40 29 21 9 10 14 3 15 10 290 202 196 182 178 184 192 195 193 199 211 190 172 153 140 129 122 113 108 104 100 104 105 56 47 91 74
307 353 228 244 261 264 237 275 291 285 30 4 11 14 359 1 357 355 1 7 360 355 357 343 264 187 170 187 188 199 201 194 165 134 127 133 125 124 113 106 102 89 80 80 52 43 90 73 86
187 262 315 341 297 259 244 255 249 307 353 8 357 346 339 326 341 344 346 357 360 344 340 347 329 273 169 137 171 156 132 127 126 122 124 123 117 115 118 117 114 97 89 76 117 102 28 66 84
306 323 332 343 259 293 286 253 234 253 36 340 338 330 333 314 311 334 322 334 334 347 343 338 341 311 263 156 145 133 119 113 110 113 120 124 115 118 101 108 79 62 103 92 91 84 91 59 64
254 275 269 170 283 282 295 264 259 269 298 332 314 325 324 321 309 288 287 305 317 324 343 335 340 331 298 238 168 152 145 136 122 112 108 78 92 116 105 90 124 95 77 99 112 107 106 110 93